Sigfox identifier Datetime Temperature Humidity SNR
0039380A 2018-10-09 08:37:41 21 40 21.5
0039380A 2018-10-09 07:30:59 21 40 21.1
0039380A 2018-10-09 06:24:20 21 40 21
0039380A 2018-10-09 05:17:36 21 39 21.8
0039380A 2018-10-09 01:57:29 21 38 21.3
0039380A 2018-10-09 00:50:47 21 38 21.1
0039380A 2018-10-08 23:44:05 21 38 20.8
0039380A 2018-10-08 22:37:25 21 38 20.5
0039380A 2018-10-08 21:30:44 21.1 37 20.2
0039380A 2018-10-08 20:24:01 21.1 37 20
0039380A 2018-10-08 19:17:23 21.2 37 19.9
0039380A 2018-10-08 18:10:40 21.2 37 19.6
0039380A 2018-10-08 17:04:00 21.2 36 19.7
0039380A 2018-10-08 15:57:19 21.2 36 19.4
0039380A 2018-10-08 14:50:38 21.2 36 19.4
0039380A 2018-10-08 12:37:18 21 35 19.4
0039380A 2018-10-08 11:30:35 20.7 34 19.2
0039380A 2018-10-08 10:23:50 20.7 34 19.2
0039380A 2018-10-08 09:17:07 20.5 34 19.4
0039380A 2018-10-08 08:10:26 20.5 34 19.3
0039380A 2018-10-08 07:03:44 20.5 36 19.1
0039380A 2018-10-08 05:57:03 20.5 36 19.1
0039380A 2018-10-08 04:50:20 20.5 36 19.1
0039380A 2018-10-08 03:43:40 20.5 37 19.1
0039380A 2018-10-08 02:36:59 20.5 37 19.1
0039380A 2018-10-08 01:30:16 20.5 38 18.9
0039380A 2018-10-08 00:23:32 20.5 38 15.9
0039380A 2018-10-07 23:16:53 20.6 38 15.7
0039380A 2018-10-07 22:10:09 20.6 39 15.9
0039380A 2018-10-07 21:03:29 20.7 39 15.6
0039380A 2018-10-07 19:56:51 20.7 39 15.9
0039380A 2018-10-07 18:50:08 20.7 39 15.9
0039380A 2018-10-07 17:43:24 20.7 39 16.1
0039380A 2018-10-07 15:29:56 20.6 39 16.2
0039380A 2018-10-07 14:23:14 20.6 39 16.5
0039380A 2018-10-07 13:16:31 20.6 39 16.7
0039380A 2018-10-07 12:09:49 20.6 39 16.9
0039380A 2018-10-07 11:03:11 20.7 39 17
0039380A 2018-10-07 09:56:26 20.6 39 17
0039380A 2018-10-07 08:49:41 20.7 40 17.1
0039380A 2018-10-07 07:43:05 20.7 40 17.1
0039380A 2018-10-07 06:36:22 20.7 40 17.4
0039380A 2018-10-07 05:29:39 20.7 40 17.3
0039380A 2018-10-07 04:22:58 20.7 40 19.6
0039380A 2018-10-07 03:16:16 20.7 41 19.5
0039380A 2018-10-07 02:09:36 20.7 41 19.6
0039380A 2018-10-07 01:02:54 20.7 41 19.8
0039380A 2018-10-06 23:56:12 20.7 41 19.8
0039380A 2018-10-06 22:49:32 20.7 41 19.7
0039380A 2018-10-06 21:42:53 20.7 41 19.8
0039380A 2018-10-06 20:36:06 20.7 41 19.8
0039380A 2018-10-06 19:29:23 20.7 41 20
0039380A 2018-10-06 18:22:40 20.7 41 20.1
0039380A 2018-10-06 17:16:00 20.8 41 20.2
0039380A 2018-10-06 16:09:20 20.8 41 20.4
0039380A 2018-10-06 15:02:37 20.7 41 20.3
0039380A 2018-10-06 13:55:57 20.9 41 20.5
0039380A 2018-10-06 12:49:17 20.8 41 20.6
0039380A 2018-10-06 11:42:30 20.7 41 20.7
0039380A 2018-10-06 10:35:46 20.7 41 20.7
0039380A 2018-10-06 09:29:05 20.7 42 20.9
0039380A 2018-10-06 08:22:23 20.7 42 21
0039380A 2018-10-06 07:15:40 20.9 42 21
0039380A 2018-10-06 06:08:56 20.9 42 21.4
0039380A 2018-10-06 05:02:07 20.8 43 21.5
0039380A 2018-10-06 03:55:23 21 43 21.8
0039380A 2018-10-06 02:48:38 21 43 22.1
0039380A 2018-10-06 01:41:56 21 43 22.5
0039380A 2018-10-06 00:35:11 21 44 17.8
0039380A 2018-10-05 23:28:30 21 44 17.9
0039380A 2018-10-05 22:21:44 21.2 44 17.7
0039380A 2018-10-05 21:15:02 21.2 45 16.2
0039380A 2018-10-05 20:08:19 21.4 45 17
0039380A 2018-10-05 19:01:34 21.5 45 18.3
0039380A 2018-10-05 17:54:52 22 45 15.3
0039380A 2018-10-05 16:48:08 21.8 54 0